ATENÇÃO
Ajude a manter GRÁTIS o conteúdo do Apolo11. Colabore conosco. Clique Aqui
Meteógrafos Informações Meteorológicas em tempo real
Aeroporto de Congonhas
23-06-2021 15:55 BRT (UTC-3)

Temperatura atual: 17 graus 62 F    Umidade relativa: 72 %
Velocidade do vento: 09 nós 16 Km/h    Direção: 150 graus SSE
Ajuste do altímetro ..: 1024 HPA
Visibilidade: Ótima    Tempo presente: Parcialmente Nublado

Observação
Poucas nuvens a 1700 Pés., Céu nublado a 2600 Pés.
Data Hora BRTTempo°CUmidadePressãoVentoVisib.
23/06 - 14:55   Parcialmente Nublado 17° 72% 1024 Este-sudeste/14 km/h 9999
23/06 - 13:55   Parcialmente Nublado 17° 72% 1024 Sudeste/18 km/h OK
23/06 - 12:55   Parcialmente Nublado 18° 68% 1026 Este-sudeste/16 km/h 9999
23/06 - 11:55   Parcialmente Nublado 17° 72% 1026 Sudeste/16 km/h OK
23/06 - 10:55   Parcialmente Nublado 16° 77% 1027 Sudeste/16 km/h OK
23/06 - 09:55   Parcialmente Nublado 15° 87% 1026 Sudeste/12 km/h OK
23/06 - 08:55   Parcialmente Nublado 14° 93% 1026 Sudeste/10 km/h OK
23/06 - 07:55   Parcialmente Nublado 14° 87% 1026 Sul-sudeste/9 km/h OK
23/06 - 06:55   Parcialmente Nublado 14° 87% 1025 Sudeste/7 km/h OK
23/06 - 05:55   Parcialmente Nublado 14° 87% 1025 Sudeste/7 km/h OK
23/06 - 04:55   Parcialmente Nublado 14° 87% 1024 Este-sudeste/9 km/h OK
23/06 - 03:55   Muitas Nuvens 13° 93% 1025 Sul-sudeste/16 km/h OK
23/06 - 02:55   Poucas nuvens esparsas 14° 93% 1025 Sudeste/14 km/h OK
23/06 - 01:55   Poucas nuvens esparsas 14° 93% 1025 Sul/5 km/h 6000
23/06 - 00:55   Muitas Nuvens 14° 93% 1025 Sudeste/10 km/h OK
22/06 - 23:55   Muitas Nuvens 14° 93% 1025 Sul/14 km/h OK
22/06 - 22:55   Poucas nuvens esparsas 14° 93% 1025 Sul/12 km/h OK
22/06 - 21:55   Parcialmente Nublado 14° 93% 1025 Sul-sudeste/12 km/h OK
22/06 - 20:55   Parcialmente Nublado 15° 87% 1025 Sul/14 km/h OK
22/06 - 19:55   Parcialmente Nublado 15° 93% 1024 Sul-sudeste/12 km/h OK
22/06 - 18:55   Chuvisco fraco 15° 93% 1024 Sul-sudeste/14 km/h 3000
22/06 - 17:55   Chuvisco fraco 15° 93% 1024 Sul-sudeste/12 km/h 4000
22/06 - 16:55   Poucas nuvens esparsas 17° 82% 1022 Sul/10 km/h OK
22/06 - 15:55   Poucas nuvens esparsas 17° 82% 1022 Sul/10 km/h OK

Termo de Uso  |   Links Úteis  |   Imprensa  |  Anuncie  |  Fale Conosco  |  Versão Celular  |   Política de Privacidade

Apolo11.com - Todos os direitos reservados - 2000 - 2021

"Os negócios... é o dinheiro dos outros" - Alexandre Dumas Filho -